EW1090 Weather Reports


Display with metric or nautical units.
time (UTC)temp
F
wind
direction
speed
MPH
gust
MPH
rain 1hr
in
rain 24hr
in
rain mn
in
humidity
%
barometer
mb
20260502203314 76 348 2.0 13.0 0.05 1.91 0.27 44 1015.1
20260502202809 76 302 3.0 13.0 0.06 1.91 0.27 43 1015.1
20260502202326 76 296 3.0 7.0 0.05 1.90 0.26 47 1015.1
20260502201820 75 323 1.0 7.0 0.06 1.90 0.26 48 1015.0
20260502201334 75 306 2.0 7.0 0.05 1.96 0.25 47 1015.1
20260502200812 75 309 2.0 9.0 0.06 1.96 0.25 49 1015.4
20260502200307 75 103 2.0 9.0 0.06 1.96 0.25 48 1015.3
20260502195804 75 310 3.0 9.0 0.06 1.95 0.24 48 1015.3
20260502195300 75 347 2.0 14.0 0.06 1.95 0.24 49 1015.4
20260502194815 75 326 4.0 14.0 0.06 1.94 0.23 49 1015.4
20260502194311 75 355 1.0 8.0 0.06 1.94 0.23 52 1015.5
20260502193806 75 229 1.0 7.0 0.06 1.93 0.22 52 1015.5
20260502193303 74 309 3.0 7.0 0.07 1.93 0.22 51 1015.5
20260502192759 74 292 3.0 7.0 0.06 1.92 0.21 52 1015.5
20260502192315 74 296 2.0 10.0 0.07 1.92 0.21 53 1015.5
20260502191811 74 302 3.0 10.0 0.06 1.91 0.20 53 1015.5
20260502191307 74 297 1.0 8.0 0.07 1.94 0.20 54 1015.6
20260502190803 74 281 3.0 7.0 0.07 1.93 0.19 54 1015.6
20260502190259 74 34 2.0 7.0 0.07 1.93 0.19 56 1015.5
20260502185814 74 321 2.0 8.0 0.07 1.92 0.18 55 1015.5
20260502185330 74 256 3.0 8.0 0.07 1.92 0.18 55 1015.6
20260502184807 74 295 2.0 6.0 0.07 1.91 0.17 56 1015.5
20260502184322 73 313 2.0 8.0 0.07 1.91 0.17 59 1015.5
20260502183840 73 289 3.0 11.0 0.07 1.90 0.16 56 1015.5
20260502183311 73 19 4.0 11.0 0.07 1.89 0.15 56 1015.7
20260502182827 73 308 3.0 7.0 0.07 1.89 0.15 56 1015.7
20260502182350 73 331 3.0 8.0 0.07 1.88 0.14 57 1015.7
20260502181821 73 14 3.0 8.0 0.07 1.88 0.14 59 1015.7
20260502181316 73 312 2.0 7.0 0.07 1.87 0.13 58 1015.7
20260502180812 73 276 2.0 8.0 0.07 1.86 0.12 56 1015.7
20260502180329 73 298 3.0 8.0 0.07 1.86 0.12 57 1015.8
20260502170326 70 323 2.0 6.0 0.07 1.79 0.05 63 1016.4
20260502164309 69 202 2.0 8.0 0.07 1.77 0.03 66 1016.3
20260502163804 69 340 2.0 12.0 0.07 1.76 0.02 65 1016.3
20260502163258 69 335 2.0 12.0 0.06 1.75 0.01 68 1016.4
20260502162815 69 342 2.0 7.0 0.07 1.75 0.01 68 1016.5
20260502162309 68 300 3.0 7.0 0.06 1.74 0.00 69 1016.4
20260502161805 68 51 2.0 8.0 0.07 1.74 0.00 68 1016.4
20260502161300 68 61 2.0 8.0 0.06 1.73 1.73 68 1016.3
20260502160811 68 306 2.0 5.0 0.07 1.73 1.73 69 1016.3
20260502160306 67 44 2.0 5.0 0.06 1.72 1.72 71 1016.4
20260502152310 65 319 2.0 7.0 0.06 1.68 1.68 75 1016.4
20260502151807 65 299 2.0 5.0 0.06 1.67 1.67 75 1016.4
20260502151303 64 24 2.0 5.0 0.06 1.67 1.67 77 1016.3
20260502150758 64 280 1.0 5.0 0.06 1.66 1.66 75 1016.3
20260502150315 64 51 2.0 5.0 0.06 1.66 1.66 76 1016.3
20260502130308 59 190 2.0 8.0 0.06 1.54 1.54 80 1014.9
20260502123804 58 103 3.0 8.0 0.06 1.51 1.51 80 1014.4
20260502123311 58 40 2.0 11.0 0.06 1.51 1.51 80 1014.4
20260502122801 58 43 3.0 9.0 0.06 1.50 1.50 80 1014.4
20260502122305 58 54 3.0 9.0 0.06 1.50 1.50 81 1014.4
20260502121809 58 76 3.0 9.0 0.06 1.49 1.49 82 1014.4
20260502121325 58 5 3.0 9.0 0.06 1.49 1.49 83 1014.3
20260502120811 58 57 4.0 12.0 0.06 1.48 1.48 83 1014.3
20260502120310 58 112 3.0 12.0 0.06 1.48 1.48 83 1014.2
20260502115805 57 344 3.0 10.0 0.06 1.47 1.47 84 1014.2
20260502115301 57 5 4.0 10.0 0.06 1.47 1.47 85 1014.0
20260502114802 57 100 3.0 9.0 0.06 1.46 1.46 86 1013.9
20260502114302 58 355 2.0 9.0 0.06 1.46 1.46 86 1013.9
20260502113809 58 348 3.0 9.0 0.06 1.45 1.45 86 1013.8
20260502113311 58 148 4.0 9.0 0.06 1.45 1.45 86 1013.7
20260502112812 58 9 4.0 8.0 0.06 1.44 1.44 86 1013.4
20260502112318 58 19 3.0 9.0 0.06 1.44 1.44 86 1013.4
20260502111759 58 11 3.0 13.0 0.06 1.43 1.43 87 1013.4
20260502111300 57 173 4.0 13.0 0.06 1.43 1.43 87 1013.2
20260502110800 57 45 3.0 11.0 0.06 1.42 1.42 87 1013.1
20260502110308 57 61 2.0 11.0 0.06 1.42 1.42 87 1013.1
20260502105808 57 9 6.0 11.0 0.06 1.41 1.41 87 1013.0
20260502105314 57 25 2.0 9.0 0.06 1.41 1.41 87 1013.0
20260502104835 57 53 2.0 13.0 0.06 1.40 1.40 87 1013.0
20260502104321 57 29 3.0 11.0 0.06 1.40 1.40 87 1012.9
20260502103822 57 57 3.0 12.0 0.06 1.39 1.39 87 1012.7
20260502103301 57 53 4.0 11.0 0.07 1.39 1.39 87 1012.6
20260502102807 57 360 2.0 11.0 0.06 1.38 1.38 87 1012.7
20260502102324 57 19 2.0 10.0 0.07 1.38 1.38 87 1012.7
20260502101310 57 36 2.0 13.0 0.07 1.37 1.37 87 1012.7
20260502100810 57 28 3.0 11.0 0.06 1.36 1.36 87 1012.5
20260502100301 57 31 2.0 11.0 0.07 1.36 1.36 88 1012.5
20260502091318 57 5 1.0 5.0 0.06 1.30 1.30 90 1012.6
20260502090804 57 32 0.0 5.0 0.07 1.30 1.30 90 1012.6
20260502090305 57 54 1.0 9.0 0.06 1.29 1.29 90 1012.2
20260502071325 58 317 0.0 4.0 0.07 1.16 1.16 90 1012.2
20260502070825 58 355 0.0 6.0 0.08 1.16 1.16 91 1012.7
20260502070311 58 355 0.0 8.0 0.08 1.15 1.15 90 1011.7
20260502065812 58 298 1.0 9.0 0.08 1.15 1.15 91 1011.8
20260502065339 59 355 1.0 9.0 0.08 1.14 1.14 91 1011.9
20260502064758 58 17 0.0 10.0 0.08 1.13 1.13 91 1012.1
20260502064259 58 200 2.0 10.0 0.08 1.13 1.13 91 1012.1
20260502063759 58 333 3.0 10.0 0.08 1.12 1.12 91 1012.0
20260502063303 58 340 1.0 10.0 0.08 1.11 1.11 91 1012.2
20260502062804 58 36 2.0 10.0 0.08 1.11 1.11 91 1012.0
20260502062311 59 355 1.0 6.0 0.08 1.10 1.10 91 1012.3
20260502061832 59 337 0.0 10.0 0.08 1.09 1.09 91 1012.1
20260502061318 59 19 0.0 10.0 0.08 1.10 1.09 91 1012.2
20260502060758 59 86 1.0 5.0 0.08 1.09 1.08 92 1011.9
20260502060259 59 315 1.0 8.0 0.08 1.08 1.07 92 1011.9
20260502055826 59 346 1.0 8.0 0.08 1.08 1.07 91 1012.0
20260502054815 59 17 0.0 4.0 0.08 1.06 1.05 91 1012.4
20260502054302 59 360 0.0 4.0 0.08 1.06 1.05 91 1012.5
20260502053808 59 67 0.0 7.0 0.08 1.05 1.04 91 1012.1
20260502053308 59 265 1.0 9.0 0.08 1.04 1.03 91 1012.0
20260502052815 60 67 2.0 9.0 0.09 1.04 1.03 91 1011.4
20260502052321 60 23 2.0 7.0 0.08 1.03 1.02 91 1012.0
20260502051801 60 32 1.0 7.0 0.08 1.02 1.01 91 1012.3
20260502051347 60 97 0.0 7.0 0.09 1.06 1.01 91 1012.3
20260502050817 60 33 0.0 7.0 0.08 1.05 1.00 91 1012.5
20260502050315 60 179 1.0 4.0 0.08 1.04 0.99 91 1011.8
20260502045816 60 51 0.0 7.0 0.09 1.04 0.99 91 1011.9
20260502045317 60 23 1.0 7.0 0.08 1.03 0.98 91 1011.8
20260502044757 60 13 0.0 6.0 0.08 1.02 0.97 91 1012.2
20260502044258 60 348 2.0 7.0 0.09 1.02 0.97 92 1011.5
20260502043759 60 88 0.0 7.0 0.09 1.01 0.96 91 1011.8
20260502043306 60 13 1.0 15.0 0.08 1.00 0.95 91 1011.4
20260502042806 60 82 1.0 15.0 0.08 0.99 0.94 91 1011.1
20260502042306 60 45 1.0 3.0 0.09 0.99 0.94 91 1011.1
20260502041811 60 74 0.0 8.0 0.08 0.98 0.93 91 1011.2
20260502041311 60 63 0.0 9.0 0.08 1.05 0.92 91 1011.4
20260502040812 60 130 1.0 11.0 0.09 1.05 0.92 91 1011.1
20260502040319 60 30 1.0 11.0 0.09 1.04 0.91 92 1010.9
20260502035800 60 77 0.0 5.0 0.08 1.03 0.90 92 1011.3
20260502035301 60 98 0.0 5.0 0.08 1.02 0.89 92 1011.6
20260502034829 60 80 1.0 5.0 0.09 1.02 0.89 92 1011.6
20260502034334 60 110 1.0 3.0 0.09 1.01 0.88 92 1012.0
20260502033814 60 104 0.0 3.0 0.08 1.00 0.87 92 1012.1
20260502033315 60 57 0.0 4.0 0.09 1.00 0.87 92 1012.2
20260502032822 60 119 0.0 4.0 0.09 0.99 0.86 92 1012.2
20260502032305 60 41 0.0 4.0 0.09 0.98 0.85 92 1011.9
20260502031802 60 65 0.0 7.0 0.09 0.98 0.85 92 1011.7
20260502031303 59 61 1.0 7.0 0.09 1.08 0.84 91 1011.4
20260502030810 59 70 0.0 5.0 0.09 1.07 0.83 91 1011.8
20260502025759 59 67 0.0 7.0 0.09 1.06 0.82 91 1011.6
20260502025307 59 69 0.0 10.0 0.09 1.05 0.81 91 1011.6
20260502024834 59 75 0.0 8.0 0.09 1.04 0.80 91 1011.5
20260502024300 59 105 0.0 7.0 0.09 1.03 0.79 91 1011.3
20260502023827 59 85 0.0 4.0 0.10 1.03 0.79 91 1011.2
20260502023307 59 86 1.0 6.0 0.09 1.02 0.78 91 1011.3
20260502022813 59 76 0.0 8.0 0.09 1.01 0.77 91 1011.1
20260502022314 59 102 2.0 8.0 0.09 1.00 0.76 91 1011.0
20260502021801 59 104 1.0 6.0 0.10 1.00 0.76 91 1011.0
20260502021308 59 264 0.0 3.0 0.10 1.14 0.75 91 1010.7
20260502020814 59 59 1.0 4.0 0.10 1.13 0.74 91 1010.9
20260502020318 60 76 1.0 13.0 0.09 1.12 0.73 91 1011.0
20260502015807 60 76 2.0 13.0 0.09 1.11 0.72 91 1010.7
20260502015317 60 35 0.0 11.0 0.10 1.11 0.72 91 1010.8
20260502014810 60 13 2.0 11.0 0.10 1.10 0.71 91 1010.7
20260502014319 60 115 0.0 8.0 0.10 1.09 0.70 91 1011.0
20260502013828 60 86 0.0 5.0 0.10 1.08 0.69 91 1011.5
20260502013336 60 76 0.0 5.0 0.10 1.08 0.69 91 1011.5
20260502012803 60 51 0.0 5.0 0.10 1.07 0.68 91 1011.4
20260502012312 60 70 0.0 7.0 0.10 1.06 0.67 91 1011.3
20260502011800 60 5 2.0 7.0 0.10 1.05 0.66 91 1011.1
20260502011309 60 47 1.0 6.0 0.10 1.22 0.65 91 1011.1
20260502010818 60 76 1.0 8.0 0.10 1.21 0.64 91 1011.9
20260502010306 60 65 1.0 8.0 0.11 1.21 0.64 91 1011.6
20260502005800 60 13 1.0 9.0 0.11 1.20 0.63 91 1011.7
20260502005309 60 52 2.0 9.0 0.11 1.19 0.62 91 1011.6
20260502004817 60 47 1.0 6.0 0.11 1.18 0.61 91 1011.1
20260502004306 60 21 1.0 6.0 0.11 1.17 0.60 91 1011.1
20260502003814 60 355 1.0 8.0 0.10 1.16 0.59 91 1011.3
20260502003303 60 5 1.0 10.0 0.10 1.15 0.58 91 1011.1
20260502002812 60 339 2.0 10.0 0.11 1.15 0.58 91 1010.8
20260502002300 60 162 1.0 6.0 0.11 1.14 0.57 91 1011.1
20260502001809 60 52 1.0 8.0 0.11 1.13 0.56 91 1010.9
20260502001338 60 12 2.0 8.0 0.11 1.34 0.55 91 1010.9
20260502000809 60 265 1.0 8.0 0.11 1.33 0.54 91 1010.7
20260502000339 60 32 2.0 8.0 0.11 1.32 0.53 91 1010.5
20260501235338 60 338 0.0 7.0 0.10 1.30 0.51 90 1010.4
20260501234806 60 333 1.0 7.0 0.10 1.29 0.50 91 1010.7
20260501234314 60 153 0.0 8.0 0.10 1.28 0.49 91 1010.7
20260501233802 60 344 2.0 8.0 0.10 1.27 0.48 91 1010.8
20260501233310 60 117 1.0 9.0 0.11 1.27 0.48 90 1010.8
20260501232819 60 348 1.0 8.0 0.11 1.26 0.47 90 1010.7
20260501232308 60 17 1.0 10.0 0.11 1.25 0.46 90 1010.8
20260501231801 60 53 3.0 10.0 0.11 1.24 0.45 89 1010.7
20260501231309 60 112 2.0 11.0 0.11 1.48 0.44 89 1010.2
20260501230818 60 360 3.0 10.0 0.11 1.47 0.43 89 1010.2
20260501230306 60 22 3.0 10.0 0.11 1.46 0.42 89 1010.1
20260501225815 60 82 2.0 10.0 0.11 1.45 0.41 89 1010.2
20260501225306 61 44 1.0 13.0 0.12 1.45 0.41 89 1010.3
20260501224812 61 44 5.0 14.0 0.12 1.44 0.40 89 1010.2
20260501224300 61 225 2.0 10.0 0.12 1.43 0.39 89 1010.5
20260501223829 61 5 1.0 10.0 0.12 1.42 0.38 89 1010.5
20260501223317 61 331 2.0 10.0 0.12 1.41 0.37 89 1010.8
20260501222826 61 338 3.0 11.0 0.12 1.40 0.36 89 1010.6
20260501222317 62 320 2.0 11.0 0.12 1.39 0.35 89 1010.6
20260501221805 62 283 1.0 11.0 0.12 1.38 0.34 89 1010.7
20260501221334 62 335 2.0 11.0 0.12 1.57 0.33 90 1010.8
20260501220802 62 343 2.0 11.0 0.12 1.56 0.32 90 1010.6
20260501220311 63 61 3.0 11.0 0.12 1.55 0.31 90 1010.2
20260501215819 63 308 3.0 10.0 0.12 1.54 0.30 90 1009.8
20260501215308 63 46 2.0 10.0 0.12 1.53 0.29 91 1010.2
20260501214816 63 349 1.0 8.0 0.12 1.52 0.28 91 1010.3
20260501214303 63 338 2.0 7.0 0.12 1.51 0.27 91 1010.4
20260501213812 63 355 2.0 7.0 0.12 1.50 0.26 91 1010.9
20260501213305 63 82 1.0 8.0 0.12 1.49 0.25 91 1010.9
20260501212834 63 30 1.0 8.0 0.12 1.48 0.24 91 1010.7
20260501212305 63 26 1.0 8.0 0.12 1.47 0.23 90 1010.5
20260501211810 63 34 1.0 10.0 0.12 1.46 0.22 91 1011.0
20260501211319 63 37 0.0 10.0 0.12 1.45 0.21 91 1011.1
20260501210807 63 43 0.0 9.0 0.11 1.44 0.20 91 1010.9
20260501210316 63 348 1.0 10.0 0.11 1.43 0.19 91 1010.8
20260501205825 63 14 1.0 7.0 0.11 1.42 0.18 91 1010.7
20260501205312 63 22 0.0 6.0 0.11 1.41 0.17 90 1011.5
20260501204801 63 349 1.0 9.0 0.10 1.40 0.16 91 1011.5
20260501204304 63 312 1.0 10.0 0.10 1.39 0.15 91 1011.1
20260501203801 63 343 2.0 10.0 0.09 1.38 0.14 91 1009.9